Wind_Speed
17 17 17 16 16 15 15 15 14 14 12 11 10 10 10 10 9 8 8 8 8 8 8 7 6 7 7 7 7 6 6 5 5 5 5 4 4 5 4 4 3 3 3 3 3 3 2 3 3
17 17 17 17 16 16 16 16 14 13 12 11 11 10 10 10 9 8 8 8 8 8 8 7 6 7 6 6 6 6 6 5 5 4 5 5 5 5 4 3 3 3 3 3 2 2 3 3 3
16 16 16 17 17 18 18 17 15 14 14 12 11 11 10 9 9 9 8 8 8 8 8 7 6 6 6 6 6 7 7 6 5 5 5 5 5 4 4 3 3 2 2 2 1 2 2 3 3
15 16 15 17 18 18 19 17 15 15 14 13 12 11 10 10 10 9 9 8 8 9 8 7 6 6 6 6 6 6 6 6 5 5 5 4 4 3 3 2 2 2 1 1 1 1 1 2 2
15 16 17 18 19 19 19 18 16 15 14 14 13 12 11 11 10 9 9 9 8 8 7 7 6 7 6 6 6 6 6 5 5 5 4 4 3 3 3 2 1 1 1 1 2 1 1 1 2
16 17 17 18 19 19 19 18 16 16 15 14 13 12 11 11 10 9 9 9 9 8 8 7 7 6 6 6 6 6 6 5 5 5 4 4 3 2 2 1 0 0 1 1 2 2 2 2 2
15 16 16 18 18 18 19 18 16 15 15 14 13 12 11 10 9 9 9 9 9 9 8 8 7 6 6 5 5 5 5 5 4 4 3 3 3 2 0 0 1 0 1 1 1 2 2 3 3
14 16 16 17 18 18 18 18 17 15 14 14 13 12 11 10 9 9 8 8 9 9 8 7 6 6 6 5 6 5 5 4 4 4 3 2 3 3 2 2 2 1 1 1 1 2 3 3 4
14 15 16 16 16 18 17 18 18 17 15 14 13 12 10 10 9 9 9 8 8 8 8 7 6 6 5 5 5 5 5 5 4 4 3 2 3 3 2 2 2 2 2 2 2 3 3 4 4
13 13 16 16 15 16 16 17 18 17 16 14 13 11 10 9 9 9 8 8 8 7 7 7 6 6 5 4 4 4 5 5 5 4 3 3 3 3 2 2 2 1 2 2 2 4 4 4 4
12 13 14 15 15 14 15 15 17 16 15 14 12 10 9 9 9 9 9 8 7 7 6 5 5 6 6 5 4 4 5 5 5 5 4 4 3 3 3 2 2 2 3 3 3 4 4 4 5
11 12 13 14 16 16 15 15 15 16 14 14 13 11 10 9 9 9 9 8 7 7 7 6 5 6 6 5 4 4 4 4 4 4 3 3 4 3 3 3 3 3 4 4 4 4 4 5 6
10 11 11 14 15 16 16 15 15 15 15 14 13 12 10 10 9 9 8 8 7 6 6 6 5 5 6 5 5 4 4 4 4 4 4 3 3 4 4 4 4 4 5 5 5 5 6 6 7
7 8 10 13 14 15 16 17 16 16 14 13 13 12 11 10 9 9 8 8 7 6 6 5 6 5 5 6 5 5 4 5 5 5 4 3 3 3 4 4 4 5 5 5 5 6 6 7 7
6 6 8 11 12 14 13 15 16 16 15 14 12 11 11 10 10 9 9 8 7 7 6 6 5 5 6 6 5 5 5 5 6 6 5 4 4 4 5 5 5 6 6 6 6 6 7 7 7
5 5 6 8 10 12 13 14 16 15 15 14 13 11 11 10 10 9 8 8 8 7 7 7 7 6 6 6 6 5 5 6 6 6 6 5 5 5 6 6 6 7 7 7 7 7 7 7 8
4 5 6 7 8 10 12 13 14 15 15 14 13 12 11 11 10 9 8 7 7 7 7 7 6 6 6 6 6 6 6 6 7 7 7 6 6 6 7 7 7 8 8 8 9 9 8 8 9
3 3 4 5 7 9 9 11 12 14 14 13 12 12 11 12 11 9 8 7 7 7 7 6 5 6 6 6 6 7 6 6 7 7 7 7 7 7 8 8 9 9 9 9 9 9 9 9 9
1 3 4 6 6 8 8 10 12 12 13 12 12 11 11 12 11 10 9 8 7 8 7 7 5 5 6 7 7 7 7 7 7 8 8 8 8 9 9 10 10 9 9 9 10 10 10 10 10
2 1 2 5 8 8 9 10 11 11 10 10 11 11 10 11 10 10 9 9 8 8 8 7 6 6 6 7 7 7 7 8 8 9 10 10 9 10 11 10 10 9 9 10 10 10 10 11 11
2 1 2 5 8 9 10 11 11 11 9 8 10 11 10 11 10 9 9 10 9 8 8 8 7 8 7 7 7 7 7 8 9 10 11 12 11 12 11 10 11 10 10 11 11 11 11 12 12
4 4 5 6 8 9 10 13 11 11 8 8 9 9 10 10 10 10 10 11 9 8 8 8 8 9 8 7 7 7 8 9 9 10 11 12 12 12 11 11 11 11 11 12 12 12 11 13 13
5 5 6 7 8 9 10 13 12 11 9 8 9 8 8 9 10 10 11 11 9 8 8 8 10 10 9 8 8 8 9 9 10 11 11 12 12 12 11 11 11 12 12 12 11 12 12 13 14
8 7 7 8 9 9 10 12 12 11 9 9 9 8 9 9 9 10 10 11 9 9 9 10 10 10 8 8 9 9 9 10 10 11 11 12 12 12 11 11 12 12 12 12 12 12 13 14 15
10 10 10 10 10 10 11 12 13 10 9 9 8 8 8 9 9 11 11 11 10 10 11 10 10 10 11 10 9 10 10 11 11 11 12 12 12 12 12 12 12 12 12 12 13 13 14 15 16
11 12 12 13 13 12 11 13 12 11 9 8 9 9 9 10 10 12 13 12 11 11 12 11 12 13 12 11 11 11 12 12 12 13 13 13 13 13 14 14 14 13 13 14 15 16 16 16 17
13 13 13 15 16 16 16 14 14 12 11 10 10 10 10 11 12 13 14 13 12 12 13 13 14 14 13 13 13 13 13 14 14 14 14 14 15 15 15 15 15 15 15 16 17 18 18 18 18
15 14 14 16 17 17 17 16 13 12 11 11 11 12 12 12 12 14 14 13 12 12 14 14 14 14 14 15 15 14 14 14 14 15 15 16 16 17 16 17 17 17 17 18 18 19 19 19 20
18 18 19 19 18 17 18 17 15 14 14 14 13 13 13 13 14 14 15 14 13 14 14 16 16 15 15 16 16 16 16 16 16 17 17 18 18 19 19 19 19 18 19 20 20 20 21 21 21
20 20 21 21 21 20 20 19 17 17 17 17 16 16 16 16 16 16 15 16 17 16 16 16 17 18 18 18 18 19 19 19 19 19 19 20 20 20 21 20 20 21 21 21 22 22 23 23 23
Wind_Direction
74 70 70 67 60 55 52 51 46 50 53 54 57 59 60 62 63 67 64 70 73 73 74 81 87 87 88 86 89 92 88 96 109 113 114 112 122 131 123 110 94 100 109 106 95 83 80 70 61
75 71 69 65 59 51 47 45 46 51 52 54 57 62 65 63 64 66 63 68 73 72 72 78 83 87 85 85 86 85 82 91 103 112 115 113 116 120 120 117 116 118 125 120 106 90 86 77 65
76 72 69 63 56 53 48 45 46 52 53 55 58 61 64 64 64 64 62 68 71 70 71 76 79 86 85 84 81 79 80 84 92 107 115 116 117 112 111 115 124 133 129 121 112 97 87 71 54
75 71 67 59 52 51 48 46 47 50 50 52 54 56 60 63 65 63 62 66 68 70 74 75 76 84 86 84 82 83 84 84 88 99 107 112 114 117 120 109 93 120 94 73 77 98 89 68 55
69 66 60 55 51 49 49 47 45 48 49 51 52 53 57 61 63 63 64 66 68 71 74 75 79 83 86 84 85 86 86 85 91 95 101 107 109 117 113 106 96 92 48 39 23 17 17 17 22
66 65 54 51 53 52 48 46 44 47 50 50 51 51 53 58 60 60 63 68 69 70 75 80 83 84 84 83 81 83 81 80 89 95 96 94 93 106 117 113 84 356 24 23 10 348 339 342 345
67 64 54 49 52 52 48 45 46 45 47 48 49 50 54 57 57 58 62 66 70 73 80 83 80 79 79 78 80 80 74 70 78 81 76 74 73 77 112 264 285 284 16 20 6 350 345 349 336
65 58 55 51 49 49 46 42 44 45 45 46 48 50 53 55 55 58 62 65 71 75 77 82 80 78 77 74 75 72 69 64 67 62 49 45 37 32 14 325 294 264 280 321 342 346 341 342 343
62 56 56 53 49 51 46 40 40 43 44 46 47 50 51 54 57 60 62 66 70 72 72 76 75 74 75 73 68 63 57 56 56 48 38 28 23 23 12 344 319 270 259 282 316 334 337 338 339
65 59 57 53 48 48 48 40 38 39 39 42 44 44 45 47 53 59 64 67 66 64 63 66 65 61 60 58 56 59 56 55 50 46 43 35 29 28 16 355 343 310 287 299 313 324 332 338 346
59 58 53 50 46 43 46 42 40 40 40 41 41 40 40 46 48 50 56 60 61 58 57 54 49 49 46 45 49 56 55 53 46 42 38 36 34 24 9 3 355 337 320 312 315 323 329 325 327
57 56 51 53 48 44 41 42 41 38 39 44 44 41 41 45 46 48 51 56 57 57 58 59 49 48 48 47 50 44 43 41 35 33 30 27 28 17 7 357 345 331 325 315 307 308 314 313 316
61 54 52 56 49 41 37 36 37 37 38 39 44 43 39 37 40 44 46 45 43 44 52 53 51 51 42 39 47 45 31 31 26 26 35 32 25 18 8 354 343 331 324 318 311 305 307 314 319
68 52 53 55 47 41 37 34 32 32 36 37 42 44 41 35 35 38 39 39 43 43 43 40 45 40 34 34 43 43 37 29 20 23 16 19 17 3 356 351 346 338 328 319 316 309 306 307 309
84 66 60 51 43 33 29 30 32 31 34 32 33 36 38 37 36 37 36 36 37 34 28 26 32 26 21 28 39 39 36 27 15 3 358 2 356 351 350 342 342 342 335 322 310 307 309 307 303
93 70 59 42 33 24 19 21 25 27 29 27 27 28 30 31 29 30 33 33 34 31 28 23 20 17 19 21 21 21 18 13 7 2 357 347 344 346 343 337 331 326 324 319 312 309 310 311 309
101 80 62 45 27 13 14 12 15 21 21 20 22 24 26 28 27 27 27 28 28 22 20 18 14 18 15 8 0 1 2 3 4 3 360 351 343 338 336 332 328 323 319 313 310 308 306 307 309
103 64 53 30 14 4 8 5 6 16 16 14 18 19 23 23 22 24 23 18 18 12 12 13 9 7 1 359 359 358 356 360 359 354 349 342 337 331 329 328 326 323 317 313 310 306 303 306 310
101 69 27 1 349 346 353 355 358 3 10 13 15 17 17 13 16 21 21 17 15 10 11 7 359 357 2 357 352 348 345 348 347 345 339 335 330 325 322 321 322 319 314 314 312 310 307 306 308
141 134 357 334 333 327 327 341 346 353 360 5 14 15 12 8 15 18 18 16 10 5 8 8 7 0 350 342 339 341 340 341 339 336 335 332 328 326 325 321 321 317 311 311 310 309 306 309 312
199 202 333 328 319 313 311 327 338 344 345 348 359 7 7 6 7 11 13 5 3 5 4 4 357 349 336 328 327 329 331 334 333 334 334 332 330 329 324 322 321 317 315 314 310 305 305 311 314
238 257 290 299 300 303 305 319 331 331 324 335 348 352 357 359 360 357 1 358 357 355 353 349 347 344 338 329 323 321 322 323 324 327 329 329 326 326 323 320 316 315 315 314 310 308 305 308 309
227 254 294 293 289 298 305 311 322 327 315 326 334 340 348 351 354 350 346 346 344 340 336 334 335 333 333 333 327 321 317 318 319 323 325 326 323 319 319 318 314 313 312 312 310 308 304 305 306
237 255 277 289 284 289 300 305 312 315 319 322 320 323 331 332 341 341 338 338 335 331 328 325 328 329 332 331 327 322 319 318 319 320 322 324 326 325 321 320 319 319 316 314 311 307 303 303 305
246 260 265 271 285 292 301 306 313 308 314 316 318 326 329 327 326 327 328 330 330 328 325 323 324 325 324 321 322 318 316 315 317 319 322 325 326 326 324 320 318 314 310 308 307 307 304 302 302
246 255 265 273 283 288 297 307 312 306 310 310 318 324 325 322 317 318 319 324 327 324 320 319 317 318 316 316 315 311 311 310 311 314 316 318 320 321 320 315 311 307 306 305 305 306 305 302 301
244 252 260 269 274 280 290 298 303 304 305 307 316 319 319 318 310 310 312 316 318 316 316 315 315 314 310 312 311 307 306 306 308 310 312 314 316 316 315 312 308 306 305 303 302 303 303 302 301
246 251 252 262 273 276 282 288 300 304 307 306 308 310 312 308 304 306 306 304 306 311 311 310 311 311 305 305 307 306 304 303 303 304 306 309 311 311 312 311 307 304 302 301 299 300 300 301 299
241 244 249 259 264 274 281 282 287 294 297 295 297 299 304 302 300 302 302 297 301 304 304 307 309 305 304 304 304 303 304 303 304 304 304 304 305 306 306 306 306 304 301 300 298 298 298 297 298
242 244 249 255 259 267 273 278 280 285 288 291 293 296 300 301 301 302 304 300 301 301 302 305 306 303 304 304 305 304 306 307 305 305 304 303 302 302 302 303 304 303 301 300 298 298 297 299 297
Height
5909 5908 5908 5908 5908 5906 5904 5903 5902 5902 5902 5900 5900 5900 5899 5899 5898 5900 5898 5896 5895 5895 5895 5895 5895 5895 5895 5895 5895 5895 5896 5896 5897 5897 5897 5898 5898 5898 5899 5899 5900 5900 5900 5900 5900 5899 5899 5898 5898
5911 5910 5911 5910 5908 5907 5906 5905 5904 5904 5903 5901 5901 5901 5900 5899 5898 5898 5897 5897 5896 5896 5896 5896 5896 5896 5897 5897 5897 5897 5897 5897 5898 5898 5898 5899 5899 5899 5900 5900 5900 5900 5900 5900 5900 5899 5899 5898 5898
5913 5913 5913 5912 5910 5908 5908 5907 5906 5905 5904 5903 5903 5902 5902 5901 5900 5899 5898 5898 5898 5897 5897 5898 5898 5898 5898 5898 5898 5898 5898 5899 5899 5899 5899 5900 5900 5900 5900 5901 5901 5901 5901 5900 5900 5900 5899 5899 5898
5916 5916 5915 5913 5911 5910 5909 5909 5907 5907 5906 5905 5904 5903 5903 5902 5901 5900 5900 5899 5899 5899 5899 5899 5899 5899 5899 5899 5899 5899 5899 5900 5900 5900 5900 5901 5901 5901 5901 5901 5901 5901 5901 5901 5900 5900 5899 5899 5898
5918 5917 5916 5915 5913 5912 5911 5910 5910 5909 5908 5906 5905 5905 5904 5903 5902 5901 5901 5901 5900 5900 5900 5900 5900 5900 5900 5900 5900 5900 5900 5900 5900 5901 5901 5901 5902 5902 5902 5902 5902 5901 5901 5901 5900 5900 5899 5899 5898
5920 5919 5919 5917 5916 5915 5914 5913 5912 5911 5910 5908 5907 5906 5905 5904 5903 5903 5902 5902 5901 5901 5901 5901 5901 5901 5901 5902 5901 5901 5901 5902 5901 5901 5902 5902 5902 5902 5902 5902 5902 5901 5901 5901 5900 5900 5899 5898 5897
5922 5922 5920 5919 5918 5918 5917 5915 5914 5913 5912 5910 5908 5907 5906 5905 5905 5904 5903 5903 5902 5902 5902 5902 5903 5903 5903 5902 5902 5902 5902 5902 5902 5902 5902 5902 5902 5902 5902 5902 5902 5901 5901 5900 5900 5899 5899 5898 5897
5923 5924 5922 5921 5921 5920 5919 5917 5916 5915 5913 5912 5910 5909 5908 5907 5906 5905 5905 5904 5904 5904 5904 5904 5904 5904 5903 5903 5903 5903 5903 5903 5903 5903 5902 5902 5902 5902 5902 5901 5901 5901 5900 5900 5899 5899 5898 5897 5896
5925 5926 5924 5924 5923 5922 5921 5919 5917 5915 5914 5912 5911 5910 5909 5909 5907 5907 5906 5906 5905 5905 5905 5905 5904 5904 5904 5904 5904 5904 5903 5903 5903 5903 5903 5902 5902 5901 5901 5901 5900 5900 5900 5899 5899 5898 5897 5897 5896
5927 5927 5926 5926 5925 5924 5923 5921 5919 5917 5916 5914 5913 5912 5910 5910 5909 5908 5908 5907 5907 5907 5906 5906 5905 5905 5905 5904 5904 5904 5904 5904 5903 5903 5902 5902 5901 5901 5901 5900 5899 5899 5899 5898 5898 5897 5896 5896 5895
5929 5928 5927 5927 5926 5926 5925 5923 5921 5920 5918 5917 5915 5914 5912 5911 5910 5909 5909 5908 5908 5908 5907 5907 5906 5906 5905 5904 5904 5904 5904 5904 5903 5902 5902 5901 5901 5901 5900 5899 5899 5898 5898 5897 5897 5896 5896 5895 5894
5931 5930 5929 5929 5928 5927 5926 5924 5923 5922 5920 5918 5916 5915 5913 5912 5911 5910 5910 5910 5909 5909 5908 5908 5907 5906 5906 5905 5904 5904 5904 5903 5903 5902 5902 5901 5900 5900 5900 5899 5898 5897 5897 5896 5896 5895 5894 5894 5893
5932 5932 5931 5930 5930 5929 5927 5926 5924 5923 5921 5919 5918 5916 5915 5913 5913 5912 5911 5911 5910 5909 5909 5908 5908 5907 5906 5905 5904 5904 5904 5903 5903 5902 5902 5901 5900 5900 5899 5898 5897 5896 5895 5895 5894 5894 5893 5892 5890
5934 5933 5932 5931 5931 5930 5929 5928 5926 5924 5922 5921 5919 5917 5916 5915 5914 5912 5911 5911 5910 5910 5909 5909 5908 5907 5906 5905 5904 5904 5904 5903 5903 5902 5902 5901 5900 5899 5898 5897 5896 5895 5894 5894 5893 5892 5891 5890 5889
5934 5934 5933 5932 5931 5931 5931 5929 5927 5925 5923 5922 5920 5919 5917 5916 5914 5913 5912 5911 5911 5910 5909 5908 5908 5907 5906 5905 5904 5904 5903 5903 5902 5902 5901 5900 5899 5898 5897 5896 5895 5894 5893 5892 5891 5891 5890 5889 5888
5935 5934 5934 5933 5932 5932 5932 5930 5928 5926 5924 5923 5922 5920 5918 5916 5915 5914 5913 5912 5911 5910 5909 5908 5908 5907 5907 5906 5905 5904 5904 5903 5902 5901 5900 5899 5898 5897 5896 5895 5894 5892 5891 5890 5890 5889 5888 5887 5886
5935 5934 5933 5933 5932 5932 5931 5930 5928 5926 5925 5924 5922 5921 5919 5917 5915 5914 5913 5912 5912 5910 5909 5909 5908 5907 5907 5906 5905 5904 5903 5902 5901 5900 5899 5898 5897 5895 5894 5893 5892 5890 5889 5888 5887 5886 5885 5885 5884
5935 5934 5934 5933 5932 5932 5931 5930 5929 5927 5925 5924 5923 5921 5919 5918 5916 5914 5913 5912 5912 5910 5909 5908 5908 5907 5906 5906 5905 5904 5903 5902 5901 5899 5898 5897 5895 5894 5893 5891 5890 5888 5887 5886 5885 5884 5883 5882 5881
5935 5934 5934 5933 5932 5932 5931 5930 5929 5927 5925 5924 5923 5921 5920 5918 5916 5914 5913 5912 5912 5910 5909 5908 5907 5907 5906 5905 5904 5903 5902 5901 5900 5899 5897 5895 5894 5892 5891 5889 5887 5886 5885 5884 5883 5882 5881 5880 5879
5933 5934 5934 5933 5932 5931 5930 5929 5928 5926 5925 5924 5922 5921 5920 5918 5916 5915 5914 5913 5912 5910 5909 5908 5907 5906 5905 5904 5903 5902 5901 5900 5899 5897 5895 5893 5892 5890 5889 5887 5886 5884 5883 5882 5881 5879 5878 5877 5876
5933 5933 5933 5933 5932 5930 5929 5929 5927 5925 5924 5923 5922 5920 5919 5918 5917 5916 5914 5913 5912 5910 5909 5908 5907 5906 5905 5903 5902 5901 5900 5899 5897 5896 5894 5892 5890 5888 5887 5885 5884 5882 5881 5880 5878 5877 5876 5874 5873
5932 5932 5932 5931 5930 5929 5928 5926 5926 5924 5923 5921 5921 5919 5918 5918 5917 5916 5914 5913 5912 5911 5909 5908 5907 5905 5903 5902 5901 5900 5899 5897 5896 5894 5892 5890 5888 5886 5885 5883 5882 5880 5879 5877 5875 5874 5873 5872 5870
5930 5930 5930 5929 5928 5927 5927 5926 5926 5923 5921 5919 5919 5918 5917 5917 5916 5915 5914 5912 5911 5910 5908 5907 5905 5904 5902 5901 5899 5898 5897 5896 5894 5892 5891 5888 5886 5884 5883 5881 5879 5878 5876 5874 5872 5871 5870 5868 5867
5928 5928 5928 5927 5927 5926 5925 5924 5923 5921 5919 5917 5917 5917 5915 5915 5915 5914 5913 5911 5910 5908 5907 5905 5904 5902 5900 5899 5898 5896 5895 5893 5892 5890 5888 5886 5884 5882 5880 5878 5877 5875 5873 5871 5870 5868 5867 5865 5863
5926 5926 5926 5925 5924 5924 5923 5921 5921 5919 5918 5916 5915 5914 5913 5913 5913 5912 5910 5909 5908 5906 5905 5904 5902 5901 5899 5897 5896 5894 5893 5891 5890 5888 5886 5884 5882 5880 5877 5876 5874 5872 5870 5868 5866 5865 5863 5861 5859
5922 5923 5923 5923 5922 5921 5920 5919 5919 5916 5915 5914 5912 5912 5911 5910 5910 5910 5908 5907 5906 5904 5902 5902 5901 5899 5897 5895 5893 5892 5890 5889 5887 5885 5883 5881 5879 5877 5875 5872 5871 5869 5867 5865 5863 5861 5859 5856 5854
5919 5919 5920 5919 5918 5917 5916 5916 5915 5914 5913 5911 5909 5909 5909 5908 5908 5907 5905 5904 5903 5901 5900 5899 5897 5896 5893 5892 5890 5888 5887 5885 5883 5882 5880 5878 5876 5874 5871 5869 5867 5865 5863 5861 5859 5857 5854 5852 5850
5916 5916 5916 5915 5914 5913 5912 5912 5912 5911 5910 5908 5906 5906 5906 5905 5904 5903 5901 5900 5899 5897 5897 5896 5894 5892 5890 5888 5886 5885 5883 5881 5879 5878 5876 5874 5872 5869 5867 5865 5862 5860 5858 5856 5854 5852 5850 5848 5845
5912 5912 5911 5911 5910 5909 5908 5910 5909 5908 5907 5905 5904 5903 5902 5901 5900 5899 5898 5896 5895 5894 5893 5892 5890 5888 5886 5884 5882 5881 5879 5877 5875 5873 5871 5869 5867 5865 5862 5860 5857 5855 5853 5851 5849 5847 5844 5842 5840
5906 5906 5907 5907 5907 5906 5904 5907 5904 5903 5903 5902 5900 5900 5898 5897 5896 5895 5893 5892 5891 5890 5889 5887 5886 5884 5882 5880 5878 5876 5874 5872 5870 5868 5866 5864 5861 5859 5857 5854 5852 5850 5847 5845 5843 5841 5838 5836 5834